Arlington, WA

1:59 AM PDT on June 25, 2017 (GMT -0700)
Arlington Municipal

Weather History for KAWO - November, 2011

Change the Weather History Date:

Tuesday, November 22, 2011

  Actual Average Record
Temperature  
Mean Temperature 45 °F -  
Max Temperature 51 °F 45 °F 53 °F (2016)
Min Temperature 39 °F 32 °F 19 °F (2000)
Degree Days  
Heating Degree Days 20    
Moisture  
Dew Point 40 °F    
Average Humidity 81    
Maximum Humidity 93    
Minimum Humidity 71    
Precipitation  
Precipitation 0.93 in - - ()
Sea Level Pressure  
Sea Level Pressure 29.54 in    
Wind  
Wind Speed 15 mph (SE)    
Max Wind Speed 31 mph    
Max Gust Speed 40 mph    
Visibility 9 miles    
Events      
Averages and records for this station are not official NWS values.
T = Trace of Precipitation, MM = Missing Value Source: NWS Daily Summary

Daily Weather History Graph

Daily Weather History Graph

Search for Another Location

Airport or City:

Trip Planner

Search our weather history database for the weather conditions in past years. The results will help you decide how hot, cold, wet, or windy it might be!

Date:

Astronomy

Nov. 22, 2011 Rise Set
Actual Time 7:25 AM PST 4:23 PM PST
Civil Twilight 6:50 AM PST 4:58 PM PST
Nautical Twilight 6:12 AM PST 5:36 PM PST
Astronomical Twilight 5:35 AM PST 6:13 PM PST
Moon 4:13 AM PST (11/22) 2:33 PM PST (11/22)
Length of Visible Light 10h 07m
Length of Day
8h 57m
Waning Crescent, 9% of the Moon is Illuminated
Nov 22
Waning Crescent
Nov 24
New
Dec 2
First Quarter
Dec 10
Full
Dec 17
Last Quarter

Hourly Weather History & Observations

Time (PST) Temp. Windchill Dew Point Humidity Pressure Visibility Wind Dir Wind Speed Gust Speed Precip Events Conditions
12:15 AM 48.2 °F - 39.2 °F 71% 29.51 in 10.0 mi SE 20.7 mph 29.9 mph N/A   Overcast
12:35 AM 46.4 °F 38.3 °F 39.2 °F 76% 29.51 in 10.0 mi SE 23.0 mph 27.6 mph N/A   Overcast
12:55 AM 46.4 °F 38.5 °F 39.2 °F 76% 29.50 in 10.0 mi SE 21.9 mph 31.1 mph N/A   Overcast
1:15 AM 46.4 °F 39.2 °F 39.2 °F 76% 29.49 in 10.0 mi SE 18.4 mph 28.8 mph N/A   Overcast
1:35 AM 46.4 °F 38.7 °F 41.0 °F 81% 29.48 in 10.0 mi SE 20.7 mph 24.2 mph N/A   Overcast
1:55 AM 46.4 °F 38.7 °F 41.0 °F 81% 29.47 in 10.0 mi SE 20.7 mph 25.3 mph N/A   Overcast
2:15 AM 48.2 °F - 41.0 °F 76% 29.47 in 10.0 mi SE 23.0 mph - N/A   Overcast
2:35 AM 48.2 °F - 39.2 °F 71% 29.46 in 10.0 mi SE 17.3 mph 27.6 mph N/A   Overcast
2:55 AM 48.2 °F - 39.2 °F 71% 29.43 in 10.0 mi SE 26.5 mph 35.7 mph N/A   Overcast
3:15 AM 48.2 °F - 39.2 °F 71% 29.42 in 10.0 mi SE 21.9 mph 33.4 mph N/A   Overcast
3:55 AM 48.2 °F - 39.2 °F 71% 29.39 in 10.0 mi SE 31.1 mph 36.8 mph N/A   Overcast
4:15 AM 48.2 °F - 39.2 °F 71% 29.39 in 10.0 mi SSE 25.3 mph 32.2 mph N/A   Overcast
4:35 AM 48.2 °F - 41.0 °F 76% 29.38 in 10.0 mi SE 28.8 mph 40.3 mph 0.01 in   Overcast
4:55 AM 48.2 °F - 42.8 °F 82% 29.38 in 10.0 mi SSE 25.3 mph 38.0 mph 0.01 in   Overcast
5:15 AM 48.2 °F - 42.8 °F 82% 29.38 in 10.0 mi SSE 23.0 mph 33.4 mph N/A   Overcast
5:35 AM 48.2 °F - 44.6 °F 87% 29.39 in 10.0 mi South 15.0 mph 27.6 mph N/A   Overcast
5:55 AM 50.0 °F - 44.6 °F 82% 29.41 in 10.0 mi SSW 10.4 mph - 0.04 in   Overcast
6:15 AM 46.4 °F 39.5 °F 41.0 °F 81% 29.45 in 7.0 mi NW 17.3 mph 26.5 mph 0.21 in   Overcast
6:35 AM 44.6 °F 39.2 °F 41.0 °F 87% 29.47 in 10.0 mi NNW 10.4 mph 19.6 mph 0.27 in   Overcast
6:55 AM 44.6 °F 40.7 °F 41.0 °F 87% 29.50 in 10.0 mi North 6.9 mph - 0.33 in   Overcast
7:15 AM 44.6 °F 41.4 °F 39.2 °F 81% 29.51 in 10.0 mi NE 5.8 mph - 0.04 in   Overcast
7:35 AM 44.6 °F 40.2 °F 41.0 °F 87% 29.52 in 9.0 mi NE 8.1 mph - 0.07 in   Overcast
7:55 AM 44.6 °F - 39.2 °F 81% 29.54 in 10.0 mi Calm Calm - 0.07 in   Overcast
8:15 AM 44.6 °F - 39.2 °F 81% 29.56 in 5.0 mi Calm Calm - N/A   Overcast
8:35 AM 44.6 °F - 41.0 °F 87% 29.57 in 7.0 mi Calm Calm - 0.01 in   Overcast
9:35 AM 44.6 °F - 41.0 °F 87% 29.62 in 10.0 mi Calm Calm - N/A   Overcast
10:15 AM 44.6 °F 40.7 °F 41.0 °F 87% 29.66 in 10.0 mi SE 6.9 mph - N/A   Overcast
10:35 AM 46.4 °F 41.5 °F 41.0 °F 81% 29.66 in 10.0 mi SSE 10.4 mph - N/A   Overcast
10:55 AM 46.4 °F 40.7 °F 39.2 °F 76% 29.67 in 10.0 mi SE 12.7 mph - N/A   Overcast
11:35 AM 44.6 °F 38.4 °F 39.2 °F 81% 29.67 in 10.0 mi SE 12.7 mph 19.6 mph N/A   Overcast
11:55 AM 44.6 °F 39.2 °F 37.4 °F 76% 29.68 in 10.0 mi SSE 10.4 mph - N/A   Overcast
12:15 PM 44.6 °F 39.2 °F 39.2 °F 81% 29.68 in 10.0 mi SSE 10.4 mph - N/A   Overcast
12:35 PM 44.6 °F 39.7 °F 39.2 °F 81% 29.68 in 10.0 mi SSE 9.2 mph - N/A   Overcast
12:55 PM 44.6 °F 38.1 °F 39.2 °F 81% 29.68 in 10.0 mi SSE 13.8 mph - N/A   Overcast
1:35 PM 44.6 °F 38.1 °F 39.2 °F 81% 29.68 in 10.0 mi SE 13.8 mph - N/A   Overcast
1:55 PM 44.6 °F 37.8 °F 39.2 °F 81% 29.68 in 10.0 mi SE 15.0 mph 21.9 mph N/A   Overcast
2:15 PM 44.6 °F 38.8 °F 37.4 °F 76% 29.68 in 10.0 mi SE 11.5 mph - N/A   Overcast
2:35 PM 44.6 °F 39.7 °F 39.2 °F 81% 29.68 in 10.0 mi SE 9.2 mph - N/A   Overcast
2:55 PM 42.8 °F 39.3 °F 37.4 °F 81% 29.68 in 10.0 mi ESE 5.8 mph - N/A   Overcast
3:35 PM 42.8 °F 39.3 °F 37.4 °F 81% 29.67 in 8.0 mi ESE 5.8 mph - N/A   Overcast
3:55 PM 42.8 °F 41.1 °F 37.4 °F 81% 29.66 in 8.0 mi ESE 3.5 mph - N/A   Overcast
4:15 PM 42.8 °F - 37.4 °F 81% 29.65 in 5.0 mi Calm Calm - 0.01 in   Overcast
4:35 PM 41.0 °F - 37.4 °F 87% 29.64 in 5.0 mi Calm Calm - 0.02 in   Overcast
4:55 PM 41.0 °F - 35.6 °F 81% 29.62 in 7.0 mi Calm Calm - 0.03 in   Overcast
5:15 PM 41.0 °F - 37.4 °F 87% 29.60 in 10.0 mi Calm Calm - 0.01 in   Overcast
5:35 PM 39.2 °F - 35.6 °F 87% 29.60 in 10.0 mi Calm Calm - 0.01 in   Overcast
5:55 PM 39.2 °F - 35.6 °F 87% 29.57 in 10.0 mi Calm Calm - 0.04 in   Overcast
6:15 PM 39.2 °F 33.6 °F 35.6 °F 87% 29.55 in 10.0 mi NNE 8.1 mph - 0.01 in   Overcast
6:35 PM 39.2 °F - 35.6 °F 87% 29.54 in 10.0 mi Calm Calm - 0.01 in   Overcast
6:55 PM 41.0 °F - 35.6 °F 81% 29.53 in 9.0 mi Calm Calm - 0.02 in   Overcast
7:15 PM 41.0 °F 38.0 °F 35.6 °F 81% 29.50 in 10.0 mi NE 4.6 mph - 0.02 in   Overcast
7:35 PM 42.8 °F 40.1 °F 37.4 °F 81% 29.49 in 10.0 mi North 4.6 mph - 0.02 in   Mostly Cloudy
7:55 PM 42.8 °F - 37.4 °F 81% 29.48 in 9.0 mi Calm Calm - 0.07 in   Overcast
8:15 PM 44.6 °F - 41.0 °F 87% 29.48 in 5.0 mi Calm Calm - 0.06 in   Overcast
8:35 PM 48.2 °F - 46.4 °F 93% 29.49 in 7.0 mi Calm Calm - 0.20 in   Overcast
8:55 PM 48.2 °F - 44.6 °F 87% 29.46 in 10.0 mi Calm Calm - 0.22 in   Overcast
9:15 PM 48.2 °F - 44.6 °F 87% 29.46 in 9.0 mi SSE 12.7 mph - 0.05 in   Mostly Cloudy
9:35 PM 48.2 °F - 44.6 °F 87% 29.46 in 10.0 mi South 5.8 mph - 0.09 in   Overcast
9:55 PM 51.8 °F - 46.4 °F 82% 29.42 in 10.0 mi SE 19.6 mph 31.1 mph 0.09 in   Mostly Cloudy
10:15 PM 51.8 °F - 46.4 °F 82% 29.41 in 10.0 mi SE 26.5 mph 36.8 mph N/A   Overcast
10:35 PM 53.6 °F - 46.4 °F 77% 29.41 in 10.0 mi SSE 26.5 mph 34.5 mph N/A   Mostly Cloudy
10:55 PM 53.6 °F - 42.8 °F 67% 29.40 in 10.0 mi SE 23.0 mph 43.7 mph N/A   Mostly Cloudy
11:15 PM 53.6 °F - 44.6 °F 72% 29.39 in 10.0 mi SE 25.3 mph 40.3 mph N/A   Mostly Cloudy
11:35 PM 53.6 °F - 44.6 °F 72% 29.39 in 10.0 mi SE 26.5 mph 36.8 mph N/A   Overcast
11:55 PM 53.6 °F - 46.4 °F 77% 29.39 in 10.0 mi SSE 23.0 mph 40.3 mph 0.02 in   Overcast